Wetbulb
49.95 49.82 49.54 49.44 49.58 49.67 49.64 49.44 49.37 49.37 49.43 49.37 48.96 48.89 48.78 48.72 48.43 48.42 48.46 48.66 48.44 48.25 48.28 48.42 48.60 48.81 49.03 49.20 49.08 48.94 48.92 48.92 48.84 48.96 48.96 48.84 48.77 48.85 48.71 48.62 48.62 48.67 48.59 48.59 48.63 48.60 48.54 48.57 48.43 48.18 48.03 48.03 47.99 47.94 48.01 48.14 48.27 48.18 47.92 47.87 47.80 47.81 47.85 47.63 47.38 47.36 47.40 47.38 47.29
49.31 49.18 49.10 48.90 49.11 49.38 49.52 49.39 49.41 49.37 49.26 49.21 48.97 48.90 48.79 48.60 48.43 48.43 48.36 48.37 48.54 48.69 48.71 48.75 49.01 49.04 49.07 48.97 48.93 48.85 48.67 48.54 48.42 48.42 48.45 48.50 48.32 48.43 48.40 48.24 48.24 48.14 48.09 47.98 48.03 47.93 47.89 48.01 47.81 47.49 47.39 47.35 47.28 47.17 47.30 47.63 47.74 47.60 47.36 47.32 47.34 47.40 47.40 47.07 47.07 47.11 47.16 47.05 47.21
49.28 49.33 49.51 49.34 49.14 49.10 48.98 49.02 49.34 49.37 49.21 49.08 49.04 49.06 48.95 48.71 48.49 48.38 48.38 48.53 48.92 49.03 49.06 48.79 48.96 48.96 48.92 48.79 48.83 48.73 48.55 48.36 48.08 47.87 47.87 47.77 47.83 47.87 47.84 47.73 47.70 47.70 47.59 47.41 47.43 47.33 47.26 47.29 47.16 46.85 46.58 46.42 46.36 46.31 46.37 46.82 47.09 46.87 46.62 46.64 46.71 46.74 46.60 46.39 46.55 46.64 46.69 46.55 46.65
49.20 49.20 49.07 48.87 48.84 48.73 48.59 48.32 48.52 48.73 48.75 48.79 49.25 49.27 49.06 48.90 48.84 48.81 48.76 48.98 49.05 48.92 48.86 48.82 48.82 48.74 48.69 48.51 48.33 48.26 48.04 48.04 47.68 47.40 47.33 47.25 47.28 47.23 47.27 47.20 47.00 46.84 46.86 46.87 46.74 46.78 46.74 46.63 46.40 46.06 45.85 45.74 45.59 45.56 45.56 45.87 46.19 46.04 45.83 45.94 46.04 46.01 45.90 45.76 45.97 46.08 46.01 45.95 46.04
48.80 48.84 48.84 48.57 48.57 48.43 48.33 48.38 48.30 48.28 48.40 48.60 48.78 48.79 48.78 48.87 48.75 48.82 48.78 48.61 48.37 48.40 48.61 48.71 48.61 48.38 48.29 48.08 47.79 47.51 47.40 47.38 47.34 47.05 46.74 46.70 46.84 46.79 46.72 46.57 46.38 46.25 46.26 46.27 46.27 46.21 46.15 46.07 45.67 45.37 45.22 45.15 45.04 45.08 45.08 45.31 45.08 45.01 44.91 45.08 45.19 45.22 45.19 45.15 45.24 45.35 45.33 45.17 45.20
48.55 48.62 48.72 48.78 48.75 48.46 48.29 48.28 48.26 48.35 48.54 48.66 48.36 48.19 48.00 48.09 48.18 48.08 47.87 47.69 47.90 48.30 48.51 48.36 48.01 47.71 47.61 47.53 47.18 46.90 46.78 46.74 46.69 46.60 46.35 46.21 46.20 46.20 46.16 45.98 45.87 45.82 45.86 45.87 45.93 45.86 45.76 45.63 45.19 45.01 44.94 44.87 44.68 44.68 44.85 44.74 44.25 44.05 43.98 43.94 44.22 44.36 44.33 44.22 44.33 44.38 44.32 44.15 43.95
48.60 48.56 48.52 48.58 48.60 48.50 48.37 48.36 48.50 48.54 48.58 48.42 48.01 47.73 47.59 47.63 47.57 47.61 47.54 47.55 47.62 47.69 47.69 47.43 47.33 47.23 47.05 46.90 46.61 46.28 46.14 46.08 46.11 46.03 46.00 45.68 45.65 45.56 45.46 45.39 45.52 45.48 45.45 45.41 45.42 45.44 45.40 45.30 44.86 44.63 44.63 44.62 44.33 44.32 44.39 44.27 43.84 43.50 43.25 43.07 43.41 43.64 43.67 43.61 43.65 43.69 43.58 43.34 43.20
48.58 48.44 48.32 48.38 48.39 48.42 48.39 48.50 48.40 48.27 48.19 47.94 47.66 47.57 47.42 47.43 47.34 47.22 47.19 47.21 47.04 47.03 47.01 46.91 46.96 46.89 46.64 46.29 45.95 45.78 45.65 45.52 45.51 45.59 45.51 45.34 45.20 45.05 45.02 45.03 44.96 45.01 44.98 45.13 44.96 44.88 44.87 44.83 44.44 44.34 44.16 44.10 43.88 43.94 44.00 44.11 43.64 43.22 42.97 42.86 43.15 43.48 43.63 43.60 43.67 43.60 43.39 43.19 42.88
48.36 48.28 48.39 48.55 48.48 48.39 48.43 48.36 48.33 48.10 47.78 47.55 47.49 47.42 47.52 47.40 47.25 47.04 46.85 46.58 46.68 46.73 46.79 46.72 46.72 46.54 46.33 45.95 45.59 45.37 45.20 45.07 45.01 44.90 44.98 44.89 44.74 44.52 44.52 44.49 44.34 44.34 44.50 44.68 44.62 44.57 44.52 44.30 44.15 44.01 43.94 43.85 43.66 43.74 43.83 43.79 43.32 43.05 42.80 42.87 43.04 43.27 43.60 43.76 43.79 43.66 43.43 43.17 42.73
48.21 48.33 48.33 48.31 48.41 48.34 48.31 48.38 48.36 48.07 47.80 47.39 47.43 47.48 47.43 47.33 47.16 47.02 46.78 46.56 46.63 46.65 46.56 46.36 46.30 46.11 45.73 45.44 45.17 45.01 44.89 44.84 44.58 44.49 44.34 44.37 44.21 44.05 43.93 43.97 43.94 43.84 43.97 44.16 44.25 44.33 44.17 43.91 43.74 43.76 43.86 43.83 43.67 43.52 43.54 43.47 43.05 42.77 42.61 42.67 42.81 43.02 43.19 43.41 43.53 43.44 43.29 42.93 42.53
48.17 48.24 48.24 48.10 48.14 48.09 48.12 48.21 48.03 47.83 47.66 47.34 47.38 47.38 47.26 47.08 47.12 46.98 46.84 46.72 46.47 46.30 46.11 46.16 45.92 45.62 45.19 45.00 44.89 44.83 44.77 44.67 44.45 44.18 44.00 43.84 43.87 43.77 43.66 43.66 43.56 43.53 43.60 43.66 43.87 43.98 43.83 43.49 43.46 43.27 43.37 43.49 43.51 43.41 43.23 43.16 42.90 42.58 42.44 42.51 42.69 42.61 42.51 42.72 42.93 42.92 42.81 42.70 42.36
47.96 47.87 47.90 47.85 47.89 47.94 48.01 47.96 47.72 47.50 47.36 47.22 47.15 47.15 47.09 46.91 47.02 46.89 46.65 46.47 45.94 45.74 45.79 45.96 45.62 45.23 44.98 44.71 44.72 44.69 44.52 44.32 44.07 43.90 43.70 43.53 43.53 43.61 43.50 43.49 43.39 43.43 43.32 43.43 43.62 43.51 43.37 43.07 42.87 42.71 42.73 42.94 43.05 42.94 42.90 42.80 42.54 42.22 42.03 42.10 42.24 42.05 41.85 41.90 42.18 42.36 42.40 42.44 42.02
47.70 47.72 47.71 47.71 47.71 47.83 47.81 47.45 47.45 47.32 47.15 47.11 47.00 46.89 46.86 46.73 46.80 46.73 46.31 45.94 45.56 45.40 45.41 45.55 45.41 45.12 44.83 44.54 44.49 44.38 44.29 44.03 43.88 43.73 43.60 43.46 43.46 43.32 43.25 43.26 43.19 43.23 43.14 43.16 43.29 43.19 42.93 42.66 42.43 42.19 42.02 42.14 42.36 42.47 42.51 42.36 42.03 41.77 41.65 41.60 41.58 41.44 41.39 41.40 41.59 41.80 41.93 41.95 41.60
47.63 47.47 47.45 47.52 47.63 47.52 47.41 47.20 47.14 47.07 47.01 46.90 46.83 46.76 46.65 46.61 46.62 46.42 46.04 45.60 45.28 45.08 45.06 45.20 45.20 44.99 44.81 44.48 44.31 44.15 44.01 43.87 43.77 43.53 43.43 43.29 43.26 43.19 43.05 42.93 42.92 42.83 42.85 42.89 42.93 42.73 42.48 42.18 42.07 41.90 41.68 41.60 41.67 41.86 41.97 41.92 41.63 41.44 41.24 41.12 41.01 40.99 40.97 41.11 41.37 41.39 41.36 41.29 41.23
47.35 47.27 47.29 47.38 47.41 47.34 47.09 46.91 46.93 46.89 46.76 46.69 46.69 46.65 46.47 46.31 46.28 46.14 45.81 45.40 45.17 45.03 44.96 44.73 44.71 44.74 44.72 44.48 44.22 44.08 43.95 43.79 43.62 43.35 43.25 43.07 42.95 42.90 42.73 42.66 42.56 42.47 42.51 42.45 42.45 42.37 42.16 41.89 41.82 41.67 41.47 41.28 41.28 41.40 41.48 41.48 41.41 41.25 41.16 40.94 40.79 40.79 40.83 40.93 41.21 41.19 41.22 41.18 41.24
47.19 47.10 47.16 47.16 47.14 47.01 46.94 46.72 46.74 46.73 46.56 46.49 46.53 46.37 46.26 46.06 45.98 45.88 45.58 45.12 44.96 44.85 44.71 44.40 44.29 44.29 44.47 44.47 44.30 44.09 43.85 43.71 43.44 43.16 42.92 42.71 42.66 42.52 42.43 42.26 42.20 42.16 42.08 41.99 41.98 41.98 41.93 41.94 41.82 41.67 41.50 41.27 41.21 41.18 41.30 41.26 41.25 41.10 41.12 41.05 40.98 40.99 40.96 41.19 41.32 41.49 41.55 41.65 41.68
46.94 46.92 46.98 46.94 46.85 46.72 46.65 46.61 46.52 46.42 46.38 46.31 46.33 46.21 46.06 45.87 45.72 45.55 45.23 44.92 44.68 44.48 44.22 44.08 44.08 44.13 44.11 44.26 44.29 44.13 43.85 43.54 43.27 42.96 42.72 42.44 42.33 42.24 42.06 42.05 41.98 42.02 41.88 41.74 41.69 41.64 41.67 41.78 41.85 41.80 41.67 41.44 41.35 41.32 41.28 41.25 41.23 41.24 41.25 41.29 41.34 41.43 41.51 41.79 41.88 42.01 42.07 42.20 42.18
46.65 46.76 46.85 46.84 46.60 46.47 46.50 46.39 46.42 46.28 46.28 46.16 46.08 46.01 45.97 45.70 45.40 45.12 45.01 44.96 44.57 44.20 43.91 43.84 43.94 43.90 43.94 43.80 43.97 43.97 43.73 43.29 42.98 42.79 42.59 42.45 42.26 42.10 41.98 41.88 41.94 41.93 41.82 41.62 41.56 41.51 41.45 41.63 41.67 41.75 41.71 41.63 41.53 41.46 41.51 41.52 41.49 41.49 41.62 41.71 41.83 41.95 42.16 42.40 42.49 42.55 42.57 42.67 42.72
46.54 46.64 46.69 46.56 46.50 46.42 46.40 46.29 46.25 46.14 46.14 46.08 45.97 45.86 45.74 45.47 45.12 44.85 44.68 44.57 44.41 44.17 43.82 43.60 43.75 43.87 43.80 43.65 43.69 43.68 43.54 43.16 42.83 42.59 42.40 42.38 42.30 42.10 41.94 41.86 41.96 41.85 41.76 41.63 41.56 41.55 41.58 41.63 41.70 41.73 41.72 41.71 41.63 41.68 41.72 41.81 41.82 41.90 42.02 42.07 42.16 42.44 42.64 42.80 42.93 43.07 43.12 43.23 43.19
46.53 46.49 46.47 46.47 46.47 46.47 46.39 46.25 46.24 46.14 46.06 46.11 45.90 45.63 45.38 45.19 44.89 44.55 44.24 44.12 44.20 44.08 43.88 43.68 43.59 43.55 43.59 43.65 43.41 43.26 43.25 43.13 42.79 42.42 42.23 42.24 42.18 41.98 41.96 41.85 41.81 41.79 41.78 41.74 41.66 41.68 41.70 41.72 41.87 41.81 41.76 41.70 41.72 41.69 41.77 41.93 42.01 42.25 42.50 42.62 42.70 42.86 43.15 43.42 43.54 43.72 43.81 43.78 43.82
46.49 46.51 46.49 46.57 46.56 46.55 46.41 46.47 46.39 46.21 46.13 46.00 45.72 45.38 45.15 44.85 44.52 44.22 44.06 44.08 44.23 44.15 43.91 43.76 43.52 43.44 43.33 43.27 43.09 42.87 42.90 42.91 42.66 42.41 42.22 42.16 42.07 42.00 41.89 41.92 41.78 41.78 41.82 41.73 41.77 41.82 41.79 41.86 41.93 41.91 41.89 41.83 41.72 41.73 41.81 41.93 42.22 42.58 42.86 43.19 43.38 43.74 44.03 44.29 44.43 44.57 44.59 44.57 44.67
46.44 46.53 46.61 46.69 46.66 46.62 46.62 46.54 46.42 46.32 46.09 45.82 45.56 45.15 44.82 44.41 44.29 44.12 44.18 44.33 44.24 44.07 43.91 43.76 43.59 43.44 43.26 43.20 42.87 42.69 42.57 42.65 42.50 42.30 42.19 42.08 41.94 41.94 42.00 42.09 41.89 41.69 41.69 41.67 41.90 41.91 42.02 42.09 42.15 42.04 41.97 41.74 41.66 41.74 41.90 42.03 42.44 42.81 43.21 43.54 43.82 44.09 44.43 44.75 45.13 45.36 45.36 45.49 45.44
46.55 46.49 46.50 46.69 46.63 46.59 46.50 46.54 46.44 46.21 45.94 45.64 45.22 44.83 44.45 44.15 44.12 44.06 44.08 44.12 44.02 43.83 43.78 43.67 43.72 43.60 43.30 43.15 42.82 42.55 42.32 42.17 42.08 42.08 42.03 41.89 41.76 41.82 41.87 41.92 41.77 41.68 41.68 41.78 42.04 42.14 42.08 42.14 42.18 42.06 41.86 41.63 41.63 41.75 42.03 42.44 42.69 42.98 43.35 43.68 43.80 43.97 44.22 44.53 45.02 45.54 45.89 45.93 45.88
46.51 46.49 46.46 46.63 46.47 46.44 46.40 46.47 46.25 46.02 45.62 45.18 44.92 44.52 44.22 43.92 43.84 43.85 43.81 43.64 43.55 43.58 43.49 43.51 43.55 43.57 43.43 43.02 42.75 42.43 42.05 41.72 41.54 41.54 41.53 41.58 41.59 41.60 41.69 41.78 41.75 41.83 41.94 42.29 42.62 42.75 42.76 42.44 42.20 42.12 42.04 42.04 42.12 42.32 42.49 42.69 42.78 43.11 43.53 43.74 43.99 44.21 44.46 44.85 45.32 45.84 46.15 46.24 46.15
46.37 46.31 46.32 46.39 46.25 46.31 46.24 46.18 45.92 45.69 45.30 45.04 44.70 44.30 44.07 43.78 43.54 43.50 43.39 43.32 43.32 43.34 43.30 43.26 43.23 43.22 43.14 42.80 42.54 42.25 41.94 41.63 41.27 41.08 41.11 41.17 41.31 41.47 41.54 41.66 41.71 41.94 42.28 42.69 43.68 44.06 44.07 43.58 43.06 42.74 42.61 42.74 42.86 42.78 42.94 43.19 43.32 43.57 43.99 44.36 44.57 44.87 45.09 45.22 45.58 45.80 46.02 46.19 46.10
46.26 46.14 46.10 46.10 46.06 46.06 46.00 45.89 45.70 45.47 45.19 44.79 44.42 44.09 43.66 43.54 43.37 43.26 43.12 43.02 43.12 43.16 43.22 43.16 42.97 42.90 42.72 42.39 42.12 41.89 41.78 41.63 41.39 41.12 40.88 40.80 40.96 41.15 41.33 41.50 41.71 41.96 42.37 43.16 44.01 44.56 44.69 44.75 44.56 44.06 43.57 43.11 43.11 43.18 43.39 43.77 44.32 44.62 44.78 44.91 44.94 44.80 44.71 44.80 45.25 45.53 45.80 45.80 45.92
45.95 45.92 46.00 46.07 45.87 45.80 45.76 45.81 45.63 45.22 44.85 44.50 44.01 43.70 43.51 43.41 43.27 43.12 43.05 42.84 43.05 43.05 43.05 42.87 42.72 42.64 42.54 42.18 41.80 41.50 41.30 41.42 41.42 41.25 40.96 40.84 40.81 40.91 41.08 41.31 41.61 42.02 42.54 43.64 44.35 44.77 44.95 45.25 45.31 45.03 44.49 43.57 43.69 43.83 44.10 44.49 44.90 45.03 45.03 44.77 44.76 44.54 44.40 44.53 44.90 45.18 45.23 45.02 45.45
45.73 45.84 45.85 45.81 45.62 45.52 45.55 45.65 45.23 44.75 44.35 44.05 43.70 43.52 43.33 43.23 43.05 42.94 42.87 42.83 42.81 42.84 42.80 42.58 42.63 42.51 42.30 41.90 41.58 41.37 41.35 41.29 41.30 41.30 41.12 41.10 41.04 40.97 41.05 41.12 41.49 42.18 43.08 44.09 44.47 44.85 45.11 45.38 45.57 45.66 45.25 44.50 44.23 44.43 44.59 44.58 44.71 44.93 45.07 44.90 44.86 44.52 44.23 44.02 44.24 44.46 44.42 44.59 45.15
45.69 45.66 45.62 45.37 45.29 45.40 45.33 45.22 44.72 44.35 44.12 43.83 43.65 43.37 43.13 42.95 42.81 42.74 42.73 42.66 42.61 42.50 42.33 42.27 42.32 42.12 41.85 41.42 41.44 41.36 41.41 41.26 41.24 41.20 41.06 40.91 40.88 40.92 41.04 41.19 41.43 42.19 43.22 44.34 44.64 44.81 45.08 45.35 45.66 45.88 45.89 45.56 44.84 44.48 44.55 44.58 44.45 44.23 44.11 43.90 43.89 43.69 43.61 43.66 43.95 44.04 43.99 44.12 44.54
45.53 45.44 45.33 45.19 45.10 45.10 45.00 44.76 44.50 44.24 43.95 43.69 43.41 43.13 42.88 42.69 42.65 42.59 42.54 42.41 42.38 42.31 42.34 42.32 42.03 41.60 41.34 41.19 41.21 41.10 40.97 40.88 40.96 40.85 40.77 40.47 40.48 40.61 40.92 41.34 41.43 42.08 43.11 44.22 44.56 44.74 45.13 45.36 45.62 45.93 46.06 46.12 45.32 44.92 44.60 44.43 43.95 43.41 43.09 42.72 42.65 42.90 43.23 43.65 43.91 44.04 44.03 44.03 44.18
45.41 45.37 45.21 45.01 44.93 44.85 44.68 44.58 44.34 44.12 43.83 43.44 43.19 42.93 42.66 42.43 42.39 42.39 42.44 42.45 42.48 42.55 42.59 42.40 41.77 41.43 41.10 41.17 40.99 40.76 40.60 40.59 40.55 40.61 40.42 40.37 40.53 40.68 40.92 41.11 41.35 42.05 42.96 44.10 44.40 44.75 45.05 45.32 45.67 46.02 46.29 46.34 45.80 44.97 44.09 43.61 43.46 43.01 42.52 42.19 42.32 42.82 43.40 44.11 44.62 44.88 44.61 44.18 43.82
45.43 45.36 45.12 44.90 44.70 44.57 44.46 44.35 44.06 43.87 43.51 43.18 42.84 42.62 42.44 42.41 42.50 42.62 42.81 42.79 42.65 42.53 42.18 41.77 41.34 41.02 40.92 40.82 40.70 40.47 40.39 40.22 40.28 40.29 40.39 40.49 40.46 40.53 40.73 41.01 41.32 41.89 42.87 44.02 44.44 44.62 44.97 45.37 45.80 46.03 46.33 46.55 45.71 45.06 44.35 43.45 43.21 42.77 42.48 42.36 42.77 43.47 44.22 44.53 44.71 44.77 44.57 44.02 43.72
45.40 45.33 45.05 44.71 44.48 44.33 44.23 44.03 43.81 43.55 43.16 42.84 42.64 42.47 42.42 42.55 42.70 42.83 42.83 42.83 42.55 42.15 41.62 41.26 40.89 40.62 40.36 40.33 40.21 40.10 40.06 40.12 40.25 40.42 40.59 40.63 40.48 40.40 40.48 40.81 41.21 42.10 43.15 44.07 44.41 44.75 45.02 45.37 45.72 46.07 46.25 46.33 45.36 44.58 43.85 43.27 43.06 42.61 42.41 42.57 43.35 44.14 44.60 44.56 44.34 44.13 43.93 44.02 43.86
45.25 45.07 44.75 44.48 44.29 44.12 43.98 43.80 43.51 43.12 42.83 42.50 42.47 42.45 42.53 42.62 42.55 42.46 42.52 42.58 42.35 41.97 41.57 41.25 40.90 40.71 40.50 40.37 40.08 39.89 39.90 40.14 40.23 40.28 40.28 40.27 40.28 40.29 40.30 40.46 41.10 42.36 43.53 44.15 44.49 44.80 44.98 45.42 45.64 45.77 45.81 45.68 44.63 43.74 42.94 42.36 42.19 42.03 42.16 42.44 43.31 44.11 44.41 44.16 43.86 43.73 43.77 44.07 43.95
45.08 44.77 44.48 44.32 44.13 43.89 43.64 43.39 43.16 42.83 42.50 42.22 42.18 42.37 42.59 42.65 42.46 42.36 42.32 42.47 42.34 41.93 41.53 41.36 41.19 41.00 40.73 40.54 40.38 40.11 39.92 39.84 39.85 39.93 40.01 40.13 40.18 40.02 40.07 40.26 40.94 42.27 43.52 44.15 44.41 44.68 45.08 45.30 45.39 45.43 45.30 44.75 43.65 42.90 42.31 41.69 41.50 41.66 41.95 42.48 43.32 43.91 44.12 43.82 43.66 43.70 43.91 44.16 44.25
44.96 44.59 44.30 44.01 43.90 43.67 43.30 42.99 42.68 42.40 42.16 41.97 42.10 42.27 42.48 42.54 42.48 42.45 42.50 42.55 42.08 41.58 41.14 41.08 40.86 40.67 40.41 40.19 40.16 40.02 39.96 39.64 39.58 39.66 39.90 40.14 40.07 39.87 39.75 40.03 40.53 41.81 43.24 44.08 44.30 44.61 44.83 45.05 45.09 45.04 44.66 43.74 42.77 42.18 41.89 41.68 41.69 41.78 42.23 42.80 43.60 43.95 43.91 43.61 43.57 43.69 44.03 44.46 44.76
44.97 44.65 44.27 43.87 43.60 43.29 42.96 42.73 42.40 42.08 41.89 41.88 42.07 42.21 42.29 42.32 42.29 42.37 42.46 42.38 41.61 41.07 40.75 40.62 40.41 40.14 39.92 39.78 39.76 39.85 39.97 39.94 39.73 39.75 39.83 40.15 40.07 39.87 39.83 39.91 40.26 41.30 42.55 43.63 44.02 44.32 44.58 44.79 44.83 44.66 44.03 42.69 41.93 41.47 41.31 41.23 41.51 41.83 42.22 42.99 43.95 44.32 44.12 43.57 43.56 43.90 44.33 44.80 45.05
44.95 44.74 44.27 43.79 43.38 43.07 42.79 42.48 42.16 41.87 41.82 41.96 42.12 42.32 42.31 42.27 42.10 42.19 42.29 42.14 41.25 40.75 40.44 40.34 40.06 39.95 39.95 39.96 39.86 39.98 40.11 40.10 40.08 39.98 39.79 39.95 40.07 40.03 40.03 39.99 40.27 41.02 42.12 43.31 43.82 44.20 44.41 44.53 44.61 44.49 43.69 42.24 41.57 41.20 41.07 41.10 41.39 41.71 42.13 42.70 43.65 44.01 43.82 43.44 43.48 44.12 44.67 44.88 45.28
44.97 44.74 44.31 43.71 43.30 42.96 42.52 42.20 41.95 41.94 41.96 42.05 42.21 42.28 42.27 42.14 41.93 42.08 42.10 42.08 41.41 40.78 40.44 40.12 40.00 40.04 40.20 40.40 40.06 40.00 39.92 40.11 40.27 40.21 40.06 39.87 40.34 40.74 40.90 40.31 40.38 40.94 41.96 43.11 43.57 43.90 44.11 44.32 44.49 44.49 43.95 42.69 41.70 41.20 41.18 41.33 41.69 41.81 42.00 42.30 42.62 42.93 43.11 43.11 43.57 44.08 44.54 44.67 45.49
45.07 44.74 44.38 43.80 43.23 42.81 42.42 42.06 41.95 42.10 42.29 42.30 42.22 42.18 42.12 42.10 42.09 42.12 42.19 42.06 41.57 41.11 40.69 40.27 40.23 40.27 40.46 40.63 40.06 39.81 39.66 39.85 40.12 40.33 40.41 40.46 40.93 41.62 41.83 40.74 40.58 40.94 41.79 42.90 43.40 43.69 43.90 44.11 44.32 44.40 43.99 42.57 41.82 41.47 41.53 41.92 41.97 41.95 41.92 41.96 42.08 42.18 42.53 42.94 43.49 43.86 44.07 44.20 44.89
45.10 44.76 44.39 43.86 43.36 42.81 42.43 42.07 42.08 42.34 42.48 42.55 42.39 42.33 42.35 42.41 42.23 42.15 41.86 41.61 41.41 41.18 40.88 40.53 40.46 40.46 40.54 40.65 40.03 39.66 39.40 39.44 39.89 40.24 40.64 41.04 41.17 41.58 41.71 40.90 40.66 40.82 41.47 42.45 43.23 43.65 43.86 44.07 44.15 44.23 43.82 42.57 42.11 42.00 42.14 42.36 42.19 42.02 41.80 41.84 42.07 42.23 42.43 42.89 43.16 43.26 43.19 43.11 43.15
MSLP
1020.48 1020.52 1020.60 1020.72 1020.76 1020.80 1020.92 1021.04 1021.20 1021.24 1021.28 1021.28 1021.28 1021.32 1021.36 1021.36 1021.32 1021.32 1021.32 1021.36 1021.36 1021.32 1021.32 1021.32 1021.28 1021.24 1021.24 1021.20 1021.16 1021.08 1021.04 1021.00 1020.92 1020.88 1020.80 1020.72 1020.64 1020.60 1020.48 1020.40 1020.32 1020.28 1020.20 1020.12 1020.08 1020.04 1019.96 1019.92 1019.88 1019.80 1019.76 1019.68 1019.60 1019.48 1019.44 1019.32 1019.20 1019.12 1019.04 1018.92 1018.80 1018.72 1018.60 1018.52 1018.44 1018.36 1018.32 1018.24 1018.20
1020.48 1020.56 1020.64 1020.72 1020.76 1020.88 1021.00 1021.04 1021.20 1021.28 1021.32 1021.40 1021.40 1021.44 1021.44 1021.44 1021.44 1021.40 1021.40 1021.40 1021.40 1021.40 1021.36 1021.32 1021.32 1021.28 1021.28 1021.24 1021.20 1021.16 1021.08 1021.04 1020.92 1020.88 1020.76 1020.68 1020.64 1020.56 1020.48 1020.40 1020.32 1020.28 1020.20 1020.12 1020.08 1020.04 1019.96 1019.92 1019.88 1019.80 1019.72 1019.64 1019.56 1019.48 1019.36 1019.24 1019.20 1019.04 1018.92 1018.84 1018.72 1018.60 1018.52 1018.44 1018.36 1018.32 1018.24 1018.16 1018.12
1020.52 1020.60 1020.68 1020.76 1020.80 1020.88 1020.96 1021.04 1021.16 1021.24 1021.32 1021.40 1021.48 1021.48 1021.48 1021.48 1021.48 1021.48 1021.48 1021.48 1021.44 1021.44 1021.40 1021.32 1021.32 1021.32 1021.32 1021.24 1021.20 1021.20 1021.12 1021.04 1020.96 1020.88 1020.76 1020.68 1020.60 1020.56 1020.48 1020.40 1020.32 1020.28 1020.20 1020.12 1020.08 1020.04 1019.96 1019.92 1019.88 1019.76 1019.68 1019.60 1019.52 1019.44 1019.32 1019.20 1019.12 1019.04 1018.92 1018.76 1018.68 1018.60 1018.48 1018.40 1018.32 1018.24 1018.20 1018.12 1018.08
1020.60 1020.68 1020.76 1020.80 1020.84 1020.88 1021.00 1021.04 1021.16 1021.24 1021.32 1021.40 1021.48 1021.48 1021.48 1021.48 1021.48 1021.48 1021.48 1021.48 1021.44 1021.40 1021.36 1021.32 1021.32 1021.32 1021.32 1021.28 1021.24 1021.20 1021.16 1021.04 1020.96 1020.88 1020.76 1020.68 1020.60 1020.52 1020.48 1020.40 1020.32 1020.28 1020.20 1020.16 1020.08 1020.04 1020.00 1019.92 1019.88 1019.76 1019.64 1019.60 1019.48 1019.36 1019.28 1019.20 1019.12 1019.04 1018.88 1018.80 1018.72 1018.60 1018.52 1018.40 1018.32 1018.24 1018.20 1018.12 1018.08
1020.76 1020.80 1020.88 1020.92 1021.00 1021.04 1021.12 1021.20 1021.24 1021.28 1021.32 1021.36 1021.36 1021.36 1021.36 1021.40 1021.44 1021.44 1021.44 1021.40 1021.36 1021.32 1021.32 1021.36 1021.36 1021.36 1021.32 1021.32 1021.24 1021.20 1021.12 1021.04 1020.96 1020.88 1020.76 1020.68 1020.60 1020.56 1020.48 1020.40 1020.32 1020.24 1020.20 1020.12 1020.08 1020.04 1019.96 1019.92 1019.84 1019.76 1019.64 1019.56 1019.48 1019.36 1019.28 1019.20 1019.12 1019.04 1018.92 1018.84 1018.76 1018.64 1018.52 1018.40 1018.32 1018.28 1018.20 1018.16 1018.12
1020.88 1020.96 1021.04 1021.08 1021.16 1021.20 1021.28 1021.32 1021.32 1021.32 1021.32 1021.36 1021.32 1021.32 1021.32 1021.32 1021.36 1021.40 1021.40 1021.36 1021.32 1021.36 1021.36 1021.40 1021.36 1021.36 1021.32 1021.28 1021.24 1021.16 1021.08 1021.04 1020.92 1020.88 1020.76 1020.64 1020.60 1020.52 1020.44 1020.32 1020.32 1020.24 1020.16 1020.08 1020.04 1020.00 1019.92 1019.88 1019.76 1019.68 1019.60 1019.52 1019.44 1019.36 1019.28 1019.20 1019.12 1019.04 1018.92 1018.80 1018.72 1018.64 1018.56 1018.48 1018.40 1018.32 1018.28 1018.20 1018.20
1021.00 1021.08 1021.20 1021.20 1021.32 1021.32 1021.36 1021.40 1021.40 1021.36 1021.32 1021.32 1021.32 1021.32 1021.32 1021.36 1021.44 1021.44 1021.40 1021.36 1021.36 1021.36 1021.36 1021.40 1021.40 1021.36 1021.32 1021.28 1021.20 1021.16 1021.04 1020.96 1020.88 1020.80 1020.72 1020.60 1020.52 1020.48 1020.36 1020.32 1020.28 1020.20 1020.16 1020.04 1020.00 1019.92 1019.88 1019.80 1019.72 1019.60 1019.52 1019.48 1019.36 1019.28 1019.24 1019.20 1019.08 1019.00 1018.88 1018.76 1018.72 1018.64 1018.60 1018.48 1018.48 1018.40 1018.32 1018.28 1018.24
1021.16 1021.20 1021.28 1021.32 1021.40 1021.44 1021.48 1021.48 1021.48 1021.40 1021.32 1021.32 1021.32 1021.36 1021.40 1021.44 1021.48 1021.48 1021.48 1021.40 1021.36 1021.40 1021.44 1021.44 1021.40 1021.36 1021.32 1021.24 1021.20 1021.12 1021.04 1020.92 1020.84 1020.76 1020.64 1020.60 1020.48 1020.44 1020.32 1020.28 1020.20 1020.12 1020.04 1020.00 1019.92 1019.84 1019.76 1019.76 1019.64 1019.56 1019.48 1019.40 1019.32 1019.20 1019.12 1019.08 1019.04 1018.92 1018.84 1018.76 1018.68 1018.60 1018.56 1018.52 1018.48 1018.40 1018.32 1018.28 1018.20
1021.24 1021.32 1021.40 1021.44 1021.48 1021.52 1021.52 1021.48 1021.48 1021.44 1021.36 1021.32 1021.36 1021.40 1021.44 1021.48 1021.48 1021.48 1021.48 1021.40 1021.44 1021.48 1021.48 1021.44 1021.36 1021.32 1021.28 1021.20 1021.16 1021.04 1020.96 1020.88 1020.76 1020.68 1020.60 1020.52 1020.48 1020.36 1020.32 1020.20 1020.16 1020.04 1020.00 1019.96 1019.92 1019.80 1019.72 1019.68 1019.60 1019.48 1019.40 1019.32 1019.24 1019.16 1019.04 1019.04 1018.92 1018.84 1018.76 1018.68 1018.60 1018.52 1018.48 1018.44 1018.36 1018.32 1018.24 1018.20 1018.16
1021.28 1021.36 1021.44 1021.48 1021.52 1021.52 1021.52 1021.48 1021.48 1021.44 1021.40 1021.36 1021.36 1021.40 1021.44 1021.48 1021.48 1021.48 1021.48 1021.48 1021.48 1021.48 1021.48 1021.40 1021.32 1021.28 1021.20 1021.20 1021.08 1021.00 1020.88 1020.84 1020.76 1020.64 1020.56 1020.52 1020.40 1020.32 1020.20 1020.16 1020.08 1020.00 1019.92 1019.88 1019.76 1019.72 1019.64 1019.60 1019.52 1019.44 1019.32 1019.28 1019.20 1019.08 1019.00 1018.92 1018.84 1018.72 1018.60 1018.56 1018.48 1018.40 1018.32 1018.32 1018.28 1018.20 1018.16 1018.12 1018.04
1021.32 1021.40 1021.44 1021.48 1021.56 1021.56 1021.52 1021.48 1021.44 1021.40 1021.40 1021.36 1021.40 1021.44 1021.44 1021.44 1021.48 1021.48 1021.52 1021.52 1021.52 1021.48 1021.40 1021.32 1021.28 1021.24 1021.20 1021.08 1021.04 1020.96 1020.88 1020.80 1020.72 1020.60 1020.52 1020.48 1020.32 1020.24 1020.20 1020.12 1020.04 1019.92 1019.84 1019.76 1019.72 1019.64 1019.60 1019.56 1019.48 1019.32 1019.28 1019.20 1019.12 1019.00 1018.88 1018.80 1018.72 1018.60 1018.52 1018.44 1018.36 1018.32 1018.24 1018.16 1018.16 1018.16 1018.08 1018.00 1017.92
1021.32 1021.44 1021.48 1021.52 1021.60 1021.60 1021.56 1021.48 1021.44 1021.40 1021.36 1021.36 1021.40 1021.44 1021.44 1021.44 1021.44 1021.48 1021.48 1021.52 1021.48 1021.36 1021.32 1021.32 1021.24 1021.20 1021.12 1021.04 1021.00 1020.88 1020.84 1020.76 1020.64 1020.56 1020.48 1020.40 1020.32 1020.20 1020.12 1020.04 1019.92 1019.84 1019.76 1019.72 1019.64 1019.60 1019.56 1019.44 1019.32 1019.24 1019.12 1019.04 1019.00 1018.88 1018.76 1018.68 1018.60 1018.48 1018.44 1018.36 1018.32 1018.24 1018.20 1018.08 1018.04 1018.04 1018.00 1017.92 1017.84
1021.40 1021.48 1021.48 1021.52 1021.56 1021.52 1021.48 1021.48 1021.44 1021.40 1021.40 1021.40 1021.40 1021.44 1021.48 1021.48 1021.48 1021.48 1021.48 1021.44 1021.40 1021.32 1021.32 1021.28 1021.20 1021.16 1021.08 1021.04 1020.92 1020.88 1020.76 1020.72 1020.60 1020.48 1020.40 1020.32 1020.20 1020.08 1020.04 1019.92 1019.84 1019.76 1019.68 1019.64 1019.60 1019.56 1019.48 1019.36 1019.28 1019.16 1019.04 1018.92 1018.88 1018.84 1018.76 1018.64 1018.56 1018.48 1018.36 1018.32 1018.24 1018.20 1018.08 1018.00 1017.96 1017.92 1017.92 1017.84 1017.76
1021.40 1021.44 1021.48 1021.48 1021.48 1021.48 1021.44 1021.44 1021.44 1021.40 1021.36 1021.36 1021.40 1021.44 1021.48 1021.48 1021.44 1021.44 1021.44 1021.40 1021.36 1021.32 1021.32 1021.24 1021.20 1021.12 1021.04 1020.96 1020.88 1020.80 1020.72 1020.60 1020.52 1020.44 1020.32 1020.24 1020.12 1020.04 1019.92 1019.84 1019.76 1019.72 1019.64 1019.60 1019.52 1019.48 1019.44 1019.32 1019.20 1019.12 1019.04 1018.88 1018.80 1018.76 1018.72 1018.60 1018.52 1018.44 1018.32 1018.28 1018.20 1018.08 1018.04 1017.96 1017.92 1017.84 1017.80 1017.76 1017.64
1021.32 1021.40 1021.48 1021.48 1021.44 1021.44 1021.44 1021.44 1021.40 1021.40 1021.36 1021.36 1021.44 1021.48 1021.48 1021.44 1021.40 1021.40 1021.40 1021.36 1021.32 1021.32 1021.28 1021.20 1021.12 1021.04 1021.00 1020.92 1020.84 1020.76 1020.68 1020.56 1020.48 1020.32 1020.24 1020.16 1020.04 1019.96 1019.88 1019.76 1019.72 1019.64 1019.60 1019.56 1019.48 1019.44 1019.36 1019.28 1019.20 1019.08 1019.00 1018.88 1018.80 1018.72 1018.64 1018.60 1018.52 1018.44 1018.32 1018.24 1018.16 1018.04 1018.00 1017.92 1017.88 1017.80 1017.76 1017.64 1017.52
1021.28 1021.36 1021.44 1021.40 1021.40 1021.40 1021.40 1021.44 1021.44 1021.44 1021.44 1021.44 1021.44 1021.48 1021.48 1021.44 1021.40 1021.40 1021.40 1021.36 1021.32 1021.24 1021.20 1021.12 1021.04 1020.96 1020.92 1020.88 1020.76 1020.68 1020.60 1020.48 1020.36 1020.24 1020.16 1020.04 1019.92 1019.88 1019.80 1019.76 1019.68 1019.60 1019.60 1019.52 1019.48 1019.40 1019.32 1019.24 1019.20 1019.08 1018.96 1018.88 1018.76 1018.68 1018.60 1018.56 1018.48 1018.40 1018.32 1018.24 1018.16 1018.04 1017.96 1017.88 1017.80 1017.72 1017.64 1017.56 1017.44
1021.28 1021.32 1021.32 1021.36 1021.36 1021.40 1021.40 1021.48 1021.48 1021.48 1021.48 1021.44 1021.48 1021.44 1021.44 1021.40 1021.40 1021.36 1021.32 1021.32 1021.24 1021.20 1021.12 1021.04 1021.00 1020.92 1020.84 1020.76 1020.72 1020.60 1020.52 1020.40 1020.28 1020.20 1020.08 1020.00 1019.92 1019.84 1019.76 1019.72 1019.68 1019.60 1019.56 1019.48 1019.40 1019.32 1019.24 1019.20 1019.12 1019.04 1018.92 1018.84 1018.76 1018.64 1018.60 1018.48 1018.44 1018.32 1018.24 1018.20 1018.08 1018.00 1017.92 1017.76 1017.68 1017.60 1017.48 1017.40 1017.32
1021.20 1021.28 1021.32 1021.32 1021.36 1021.40 1021.44 1021.48 1021.48 1021.48 1021.44 1021.44 1021.40 1021.40 1021.40 1021.40 1021.36 1021.32 1021.32 1021.24 1021.20 1021.16 1021.04 1021.04 1020.92 1020.88 1020.76 1020.72 1020.60 1020.52 1020.48 1020.32 1020.24 1020.16 1020.04 1019.96 1019.88 1019.80 1019.76 1019.72 1019.64 1019.60 1019.52 1019.48 1019.32 1019.28 1019.20 1019.08 1019.04 1018.92 1018.88 1018.76 1018.72 1018.60 1018.52 1018.44 1018.32 1018.24 1018.12 1018.04 1017.92 1017.84 1017.72 1017.60 1017.52 1017.44 1017.32 1017.24 1017.16
1021.20 1021.20 1021.28 1021.32 1021.36 1021.44 1021.44 1021.48 1021.44 1021.44 1021.40 1021.40 1021.36 1021.36 1021.36 1021.32 1021.32 1021.28 1021.24 1021.20 1021.12 1021.08 1021.04 1020.96 1020.88 1020.80 1020.72 1020.60 1020.52 1020.48 1020.40 1020.32 1020.20 1020.08 1020.04 1019.92 1019.84 1019.76 1019.76 1019.68 1019.60 1019.52 1019.48 1019.40 1019.28 1019.20 1019.12 1019.04 1018.96 1018.88 1018.76 1018.72 1018.60 1018.56 1018.44 1018.32 1018.20 1018.08 1017.96 1017.88 1017.76 1017.64 1017.52 1017.40 1017.32 1017.20 1017.12 1017.00 1016.88
1021.20 1021.20 1021.28 1021.36 1021.44 1021.44 1021.44 1021.44 1021.40 1021.40 1021.36 1021.36 1021.32 1021.32 1021.32 1021.28 1021.24 1021.20 1021.16 1021.12 1021.08 1021.04 1021.00 1020.88 1020.84 1020.76 1020.60 1020.52 1020.48 1020.36 1020.32 1020.24 1020.16 1020.04 1019.96 1019.92 1019.80 1019.76 1019.68 1019.60 1019.52 1019.48 1019.40 1019.32 1019.20 1019.16 1019.04 1018.92 1018.88 1018.80 1018.76 1018.64 1018.56 1018.48 1018.32 1018.20 1018.08 1017.96 1017.80 1017.72 1017.56 1017.48 1017.32 1017.20 1017.04 1016.96 1016.84 1016.76 1016.64
1021.20 1021.20 1021.32 1021.36 1021.40 1021.44 1021.44 1021.44 1021.40 1021.40 1021.32 1021.32 1021.28 1021.24 1021.24 1021.24 1021.20 1021.12 1021.12 1021.08 1021.04 1021.00 1020.92 1020.80 1020.76 1020.64 1020.52 1020.48 1020.36 1020.32 1020.24 1020.20 1020.12 1020.00 1019.92 1019.84 1019.76 1019.68 1019.60 1019.52 1019.48 1019.40 1019.32 1019.20 1019.16 1019.04 1018.96 1018.88 1018.80 1018.76 1018.72 1018.60 1018.52 1018.40 1018.28 1018.16 1017.96 1017.80 1017.64 1017.52 1017.32 1017.20 1017.08 1017.00 1016.88 1016.80 1016.76 1016.72 1016.72
1021.20 1021.24 1021.32 1021.36 1021.40 1021.44 1021.40 1021.36 1021.32 1021.32 1021.28 1021.24 1021.20 1021.20 1021.20 1021.20 1021.12 1021.08 1021.04 1021.04 1020.96 1020.92 1020.84 1020.72 1020.64 1020.56 1020.48 1020.44 1020.32 1020.24 1020.20 1020.12 1020.04 1019.92 1019.88 1019.76 1019.68 1019.60 1019.56 1019.52 1019.44 1019.32 1019.24 1019.16 1019.04 1018.96 1018.88 1018.84 1018.76 1018.76 1018.68 1018.56 1018.48 1018.36 1018.20 1018.04 1017.84 1017.64 1017.48 1017.28 1017.12 1017.00 1016.92 1016.84 1016.80 1016.76 1016.76 1016.72 1016.68
1021.20 1021.24 1021.32 1021.32 1021.36 1021.36 1021.32 1021.32 1021.28 1021.24 1021.20 1021.20 1021.20 1021.16 1021.12 1021.12 1021.04 1021.04 1020.96 1020.92 1020.88 1020.76 1020.72 1020.60 1020.56 1020.48 1020.40 1020.32 1020.28 1020.20 1020.08 1020.00 1019.92 1019.84 1019.76 1019.68 1019.60 1019.56 1019.48 1019.48 1019.36 1019.28 1019.20 1019.08 1019.00 1018.92 1018.88 1018.76 1018.72 1018.68 1018.60 1018.56 1018.44 1018.28 1018.08 1017.92 1017.76 1017.52 1017.32 1017.16 1017.00 1016.88 1016.76 1016.68 1016.68 1016.64 1016.60 1016.56 1016.44
1021.20 1021.20 1021.28 1021.32 1021.32 1021.28 1021.24 1021.24 1021.20 1021.16 1021.12 1021.16 1021.12 1021.12 1021.08 1021.04 1021.00 1020.96 1020.88 1020.84 1020.76 1020.64 1020.60 1020.52 1020.48 1020.40 1020.32 1020.28 1020.20 1020.08 1020.00 1019.92 1019.80 1019.76 1019.68 1019.60 1019.60 1019.52 1019.48 1019.40 1019.32 1019.20 1019.12 1019.04 1018.96 1018.88 1018.76 1018.72 1018.64 1018.60 1018.52 1018.44 1018.32 1018.16 1017.96 1017.76 1017.60 1017.48 1017.32 1017.12 1016.96 1016.80 1016.68 1016.56 1016.48 1016.36 1016.28 1016.20 1016.08
1021.16 1021.20 1021.24 1021.24 1021.24 1021.20 1021.20 1021.20 1021.12 1021.08 1021.08 1021.08 1021.08 1021.08 1021.04 1021.00 1020.96 1020.88 1020.84 1020.76 1020.64 1020.56 1020.48 1020.44 1020.32 1020.32 1020.24 1020.20 1020.08 1020.00 1019.92 1019.80 1019.72 1019.64 1019.60 1019.56 1019.48 1019.48 1019.40 1019.32 1019.24 1019.16 1019.04 1018.92 1018.80 1018.72 1018.64 1018.60 1018.56 1018.48 1018.36 1018.24 1018.12 1017.96 1017.80 1017.64 1017.48 1017.32 1017.20 1017.08 1016.96 1016.76 1016.60 1016.44 1016.28 1016.16 1016.00 1015.88 1015.76
1021.12 1021.16 1021.20 1021.20 1021.20 1021.16 1021.12 1021.08 1021.04 1021.04 1021.04 1021.04 1021.04 1021.04 1020.96 1020.92 1020.88 1020.84 1020.76 1020.64 1020.56 1020.48 1020.40 1020.32 1020.28 1020.20 1020.16 1020.08 1020.00 1019.92 1019.84 1019.76 1019.68 1019.60 1019.56 1019.48 1019.40 1019.36 1019.32 1019.24 1019.12 1019.04 1018.92 1018.80 1018.68 1018.60 1018.48 1018.44 1018.36 1018.32 1018.20 1018.08 1018.00 1017.88 1017.76 1017.56 1017.40 1017.24 1017.12 1017.00 1016.88 1016.72 1016.48 1016.32 1016.16 1016.04 1015.88 1015.72 1015.56
1021.08 1021.12 1021.12 1021.12 1021.12 1021.08 1021.04 1021.00 1021.00 1021.00 1020.96 1020.96 1020.96 1020.96 1020.92 1020.88 1020.84 1020.76 1020.60 1020.52 1020.44 1020.36 1020.32 1020.24 1020.20 1020.16 1020.08 1020.00 1019.92 1019.80 1019.76 1019.64 1019.60 1019.56 1019.48 1019.40 1019.32 1019.24 1019.20 1019.12 1019.00 1018.88 1018.76 1018.68 1018.56 1018.44 1018.32 1018.28 1018.20 1018.12 1018.04 1017.92 1017.84 1017.76 1017.60 1017.48 1017.28 1017.12 1016.96 1016.84 1016.72 1016.56 1016.36 1016.20 1016.04 1015.84 1015.68 1015.56 1015.40
1021.04 1021.04 1021.04 1021.04 1021.04 1021.04 1021.00 1020.96 1020.92 1020.92 1020.92 1020.92 1020.92 1020.88 1020.88 1020.80 1020.76 1020.64 1020.52 1020.48 1020.36 1020.32 1020.24 1020.20 1020.16 1020.08 1020.04 1019.92 1019.80 1019.72 1019.64 1019.56 1019.48 1019.44 1019.40 1019.32 1019.20 1019.16 1019.04 1018.96 1018.88 1018.76 1018.60 1018.48 1018.40 1018.28 1018.20 1018.12 1018.04 1017.96 1017.84 1017.72 1017.64 1017.60 1017.48 1017.32 1017.20 1017.04 1016.88 1016.68 1016.52 1016.36 1016.20 1016.00 1015.76 1015.60 1015.48 1015.36 1015.32
1020.96 1021.00 1021.00 1021.00 1020.96 1020.96 1020.92 1020.88 1020.88 1020.88 1020.88 1020.88 1020.88 1020.84 1020.76 1020.72 1020.64 1020.56 1020.48 1020.40 1020.32 1020.28 1020.20 1020.16 1020.12 1020.04 1019.96 1019.80 1019.72 1019.60 1019.52 1019.48 1019.40 1019.32 1019.24 1019.20 1019.08 1019.04 1018.92 1018.80 1018.68 1018.60 1018.48 1018.36 1018.24 1018.16 1018.04 1018.00 1017.92 1017.80 1017.68 1017.56 1017.48 1017.40 1017.32 1017.20 1017.08 1016.92 1016.76 1016.60 1016.40 1016.20 1015.96 1015.76 1015.60 1015.44 1015.32 1015.28 1015.24
1020.92 1020.96 1020.96 1020.92 1020.88 1020.88 1020.88 1020.88 1020.88 1020.88 1020.88 1020.84 1020.80 1020.76 1020.72 1020.64 1020.56 1020.48 1020.40 1020.32 1020.32 1020.24 1020.20 1020.12 1020.04 1019.96 1019.84 1019.76 1019.60 1019.48 1019.40 1019.32 1019.24 1019.20 1019.12 1019.04 1018.92 1018.84 1018.76 1018.68 1018.56 1018.48 1018.36 1018.24 1018.16 1018.04 1017.96 1017.88 1017.76 1017.64 1017.52 1017.40 1017.32 1017.24 1017.16 1017.04 1016.88 1016.76 1016.60 1016.40 1016.16 1015.96 1015.76 1015.60 1015.48 1015.36 1015.28 1015.20 1015.20
1020.88 1020.92 1020.92 1020.88 1020.88 1020.88 1020.88 1020.88 1020.88 1020.88 1020.84 1020.80 1020.76 1020.72 1020.64 1020.60 1020.52 1020.48 1020.40 1020.32 1020.32 1020.24 1020.16 1020.08 1019.96 1019.84 1019.76 1019.60 1019.48 1019.36 1019.28 1019.20 1019.12 1019.08 1019.04 1018.96 1018.84 1018.76 1018.64 1018.52 1018.48 1018.36 1018.28 1018.16 1018.04 1017.92 1017.84 1017.76 1017.60 1017.48 1017.32 1017.20 1017.12 1017.04 1017.00 1016.88 1016.76 1016.60 1016.44 1016.24 1016.04 1015.84 1015.68 1015.60 1015.48 1015.36 1015.24 1015.20 1015.12
1020.88 1020.88 1020.88 1020.88 1020.88 1020.88 1020.88 1020.88 1020.84 1020.84 1020.80 1020.76 1020.76 1020.68 1020.60 1020.52 1020.48 1020.48 1020.36 1020.32 1020.24 1020.16 1020.04 1019.96 1019.84 1019.72 1019.60 1019.48 1019.36 1019.28 1019.20 1019.08 1019.04 1019.00 1018.92 1018.88 1018.76 1018.64 1018.52 1018.44 1018.32 1018.20 1018.12 1018.04 1017.92 1017.80 1017.72 1017.60 1017.48 1017.32 1017.20 1017.04 1016.96 1016.88 1016.84 1016.76 1016.60 1016.48 1016.28 1016.04 1015.88 1015.76 1015.72 1015.64 1015.48 1015.32 1015.20 1015.12 1015.00
1020.88 1020.88 1020.88 1020.84 1020.88 1020.88 1020.88 1020.84 1020.84 1020.84 1020.80 1020.76 1020.68 1020.60 1020.52 1020.48 1020.48 1020.40 1020.32 1020.28 1020.20 1020.04 1019.96 1019.88 1019.76 1019.60 1019.48 1019.36 1019.28 1019.20 1019.08 1019.04 1018.96 1018.88 1018.84 1018.76 1018.68 1018.56 1018.40 1018.28 1018.20 1018.12 1018.00 1017.92 1017.76 1017.64 1017.56 1017.48 1017.32 1017.20 1017.04 1016.92 1016.84 1016.76 1016.72 1016.60 1016.48 1016.32 1016.08 1015.88 1015.76 1015.64 1015.56 1015.48 1015.36 1015.20 1015.12 1015.04 1014.84
1020.80 1020.80 1020.84 1020.84 1020.88 1020.88 1020.88 1020.84 1020.80 1020.80 1020.76 1020.68 1020.60 1020.60 1020.56 1020.48 1020.44 1020.32 1020.28 1020.20 1020.08 1020.00 1019.92 1019.80 1019.68 1019.56 1019.44 1019.32 1019.20 1019.12 1019.04 1018.96 1018.88 1018.88 1018.80 1018.68 1018.60 1018.48 1018.32 1018.20 1018.08 1018.00 1017.92 1017.76 1017.60 1017.52 1017.48 1017.36 1017.24 1017.12 1016.96 1016.84 1016.76 1016.72 1016.60 1016.48 1016.32 1016.16 1015.92 1015.76 1015.60 1015.48 1015.32 1015.24 1015.12 1015.04 1014.92 1014.84 1014.68
1020.80 1020.80 1020.80 1020.84 1020.88 1020.88 1020.88 1020.84 1020.80 1020.76 1020.72 1020.64 1020.56 1020.52 1020.52 1020.48 1020.36 1020.28 1020.20 1020.08 1020.04 1019.92 1019.80 1019.72 1019.60 1019.48 1019.36 1019.24 1019.16 1019.08 1019.00 1018.88 1018.80 1018.76 1018.68 1018.60 1018.48 1018.36 1018.20 1018.04 1017.92 1017.84 1017.76 1017.64 1017.52 1017.48 1017.40 1017.32 1017.16 1017.04 1016.88 1016.76 1016.72 1016.64 1016.52 1016.32 1016.20 1016.00 1015.76 1015.56 1015.36 1015.20 1015.08 1014.96 1014.88 1014.76 1014.64 1014.60 1014.52
1020.80 1020.84 1020.84 1020.84 1020.84 1020.84 1020.84 1020.84 1020.76 1020.76 1020.68 1020.60 1020.56 1020.48 1020.48 1020.36 1020.32 1020.20 1020.12 1020.04 1019.92 1019.84 1019.76 1019.60 1019.52 1019.36 1019.24 1019.20 1019.08 1019.00 1018.92 1018.84 1018.76 1018.64 1018.56 1018.48 1018.40 1018.24 1018.08 1017.92 1017.80 1017.72 1017.64 1017.60 1017.48 1017.44 1017.32 1017.20 1017.08 1016.92 1016.80 1016.72 1016.64 1016.56 1016.44 1016.24 1016.04 1015.84 1015.64 1015.44 1015.24 1015.04 1014.88 1014.76 1014.60 1014.48 1014.40 1014.32 1014.40
1020.84 1020.88 1020.88 1020.84 1020.84 1020.84 1020.84 1020.80 1020.76 1020.72 1020.64 1020.60 1020.52 1020.48 1020.36 1020.28 1020.20 1020.16 1020.04 1020.00 1019.88 1019.76 1019.64 1019.52 1019.40 1019.32 1019.20 1019.12 1019.00 1018.92 1018.84 1018.76 1018.68 1018.56 1018.44 1018.32 1018.28 1018.12 1017.96 1017.80 1017.68 1017.60 1017.56 1017.52 1017.48 1017.36 1017.24 1017.12 1016.96 1016.84 1016.72 1016.60 1016.56 1016.44 1016.28 1016.12 1015.92 1015.76 1015.60 1015.44 1015.20 1014.96 1014.76 1014.60 1014.44 1014.28 1014.20 1014.20 1014.24
1020.88 1020.88 1020.88 1020.88 1020.88 1020.84 1020.80 1020.80 1020.76 1020.64 1020.60 1020.52 1020.48 1020.40 1020.32 1020.24 1020.16 1020.04 1020.00 1019.92 1019.80 1019.64 1019.52 1019.44 1019.32 1019.20 1019.12 1019.04 1018.88 1018.80 1018.76 1018.68 1018.60 1018.48 1018.32 1018.20 1018.12 1018.00 1017.84 1017.68 1017.56 1017.52 1017.48 1017.48 1017.40 1017.32 1017.16 1017.04 1016.84 1016.72 1016.60 1016.52 1016.40 1016.28 1016.12 1015.96 1015.80 1015.68 1015.56 1015.36 1015.16 1014.88 1014.60 1014.40 1014.24 1014.16 1014.12 1014.16 1014.08
1020.88 1020.88 1020.88 1020.88 1020.88 1020.88 1020.84 1020.76 1020.68 1020.60 1020.56 1020.48 1020.40 1020.32 1020.28 1020.20 1020.08 1020.00 1019.92 1019.84 1019.76 1019.60 1019.48 1019.32 1019.20 1019.12 1019.04 1018.92 1018.80 1018.72 1018.64 1018.56 1018.48 1018.36 1018.24 1018.12 1018.00 1017.84 1017.72 1017.56 1017.48 1017.40 1017.36 1017.32 1017.28 1017.16 1017.04 1016.88 1016.72 1016.60 1016.48 1016.36 1016.28 1016.16 1016.04 1015.84 1015.72 1015.56 1015.40 1015.20 1014.92 1014.68 1014.40 1014.20 1014.08 1014.04 1014.04 1014.00 1013.88
1020.88 1020.88 1020.88 1020.88 1020.84 1020.80 1020.76 1020.72 1020.60 1020.60 1020.52 1020.48 1020.36 1020.28 1020.20 1020.12 1020.04 1019.96 1019.88 1019.76 1019.68 1019.56 1019.40 1019.24 1019.12 1019.00 1018.92 1018.84 1018.72 1018.60 1018.48 1018.40 1018.32 1018.24 1018.12 1018.00 1017.84 1017.72 1017.60 1017.48 1017.36 1017.32 1017.24 1017.20 1017.12 1017.00 1016.88 1016.76 1016.60 1016.48 1016.36 1016.28 1016.20 1016.04 1015.92 1015.76 1015.56 1015.32 1015.16 1014.92 1014.68 1014.44 1014.24 1014.08 1014.04 1013.96 1013.92 1013.76 1013.64
1020.88 1020.84 1020.84 1020.84 1020.80 1020.76 1020.72 1020.64 1020.60 1020.52 1020.48 1020.40 1020.32 1020.20 1020.12 1020.04 1019.96 1019.88 1019.76 1019.64 1019.56 1019.44 1019.32 1019.20 1019.04 1018.88 1018.80 1018.72 1018.60 1018.48 1018.36 1018.28 1018.20 1018.08 1018.00 1017.84 1017.72 1017.60 1017.52 1017.44 1017.32 1017.20 1017.12 1017.04 1016.96 1016.84 1016.76 1016.60 1016.48 1016.36 1016.28 1016.16 1016.04 1015.92 1015.84 1015.68 1015.44 1015.20 1015.00 1014.76 1014.60 1014.44 1014.24 1014.12 1014.00 1013.88 1013.76 1013.60 1013.44
Wind_Speed
4 3 3 3 2 2 2 2 2 2 2 2 2 2 2 2 2 2 2 2 2 3 3 3 3 4 5 7 8 8 8 9 9 10 10 10 10 10 10 10 10 10 10 10 10 9 9 8 8 7 6 6 7 7 7 7 8 9 9 9 9 9 10 11 11 12 13 13 11
4 4 3 3 2 2 2 2 2 1 1 1 1 1 1 2 2 2 2 2 2 3 3 3 4 5 6 8 8 8 9 9 10 10 10 11 11 11 11 10 10 11 11 11 10 9 8 8 8 7 6 6 7 7 8 8 8 9 10 11 10 9 9 10 10 11 12 12 11
4 4 3 3 2 2 2 2 2 2 1 1 1 1 1 1 1 2 2 3 3 3 3 3 4 5 7 8 8 8 8 9 10 10 10 10 10 11 11 10 11 11 11 10 10 9 8 9 8 7 6 6 7 8 8 8 9 9 10 11 9 8 8 8 9 10 10 9 10
4 3 3 3 3 2 2 2 2 1 1 1 0 0 1 1 1 2 2 3 3 3 3 4 4 5 6 7 8 8 9 9 10 10 10 10 10 11 11 11 11 11 11 10 10 10 10 9 8 7 7 8 9 8 8 7 9 9 9 9 8 8 8 8 8 8 8 8 9
4 3 3 3 3 3 2 2 1 1 1 0 0 1 1 1 1 2 2 3 3 4 4 5 5 5 6 7 8 9 10 10 10 9 9 10 10 10 10 11 11 10 10 10 10 10 10 10 7 6 7 8 7 7 8 9 9 9 8 7 7 7 8 8 7 7 7 7 8
4 3 3 3 3 3 2 2 1 1 0 1 1 1 2 2 2 3 4 4 4 5 5 6 6 6 7 8 8 9 9 9 9 9 9 10 9 10 10 11 11 10 10 10 10 11 10 9 7 6 6 7 7 8 9 10 9 9 8 7 7 7 7 8 7 7 7 8 9
4 4 3 3 3 2 2 1 1 1 1 1 2 2 3 3 4 5 5 5 5 5 5 5 6 6 7 8 8 8 9 8 9 9 9 9 9 10 10 10 11 11 11 10 11 10 10 9 7 6 6 7 6 8 9 9 9 8 8 8 7 7 7 8 7 7 8 10 11
4 4 3 3 3 2 2 1 2 2 2 2 2 3 4 4 5 5 6 5 5 5 5 5 6 7 7 8 8 8 9 9 9 9 9 9 10 10 11 11 11 11 11 11 10 10 10 8 7 7 7 7 6 7 8 10 10 10 10 10 8 8 7 7 7 7 8 10 12
4 3 3 2 2 1 1 1 2 2 3 3 3 4 4 4 5 5 5 5 5 5 5 5 7 7 8 8 9 9 9 9 9 9 9 9 10 11 11 10 11 11 11 10 10 11 10 8 7 7 7 7 7 8 9 11 12 12 11 10 9 9 8 8 9 9 10 10 12
4 3 3 2 1 1 1 2 2 2 3 3 4 4 4 4 4 5 5 4 5 5 6 6 7 8 8 9 9 9 8 8 9 9 10 10 10 11 11 10 10 11 10 10 10 10 10 8 8 8 8 8 9 10 11 12 13 13 12 9 9 10 11 10 11 11 11 11 12
3 3 2 1 1 1 2 3 3 3 3 3 4 4 4 5 5 5 5 5 6 6 7 7 7 8 8 8 8 8 8 8 8 9 10 10 11 11 11 11 11 11 11 11 10 9 8 8 9 10 10 10 11 11 12 13 13 13 13 11 11 12 13 12 12 11 11 11 12
3 2 1 1 1 2 2 3 3 3 3 3 4 4 5 5 5 5 5 6 7 7 7 7 8 8 8 7 8 8 8 9 9 10 10 11 11 11 11 11 12 12 12 11 10 9 8 8 10 11 12 12 10 10 11 13 13 13 13 13 13 13 13 13 13 11 10 11 12
2 2 1 0 1 2 2 3 3 3 3 4 4 4 4 5 5 5 6 6 7 7 7 7 8 8 8 8 8 8 9 9 10 10 10 11 11 11 11 11 12 12 11 11 10 9 9 10 11 12 13 13 11 11 11 13 13 13 13 14 13 13 13 14 13 12 12 12 12
2 1 0 1 1 2 2 3 3 3 3 4 4 4 5 5 5 5 6 6 7 7 7 7 7 7 7 8 8 9 9 10 10 11 11 11 11 11 11 11 11 11 11 10 10 10 11 11 12 12 13 13 13 13 13 13 13 13 13 13 14 14 14 13 13 13 13 13 13
2 1 0 1 2 2 2 3 3 3 3 4 4 4 5 5 5 5 6 6 7 7 7 7 7 7 8 9 9 10 10 10 11 11 11 12 12 12 11 11 11 11 11 10 10 11 11 12 12 13 13 13 13 13 13 13 13 13 13 13 13 13 13 13 13 13 13 13 13
1 0 1 1 2 2 3 3 3 3 4 4 4 5 5 5 5 5 6 6 6 6 7 7 7 7 8 9 10 10 10 10 11 11 11 11 11 12 12 12 12 11 11 12 11 11 11 12 12 12 12 13 13 13 13 13 13 13 13 13 13 13 13 13 13 13 13 13 13
0 0 1 2 2 3 3 3 3 3 4 5 5 5 5 5 5 5 6 7 6 7 7 8 8 8 8 9 9 9 10 10 10 10 11 11 12 12 12 12 12 12 12 12 12 12 12 12 12 12 12 12 12 12 12 13 12 12 12 13 13 13 13 13 13 13 13 13 13
1 1 1 2 3 3 3 4 4 4 5 5 5 5 5 5 6 6 6 7 7 8 9 9 9 9 9 9 9 9 9 10 10 10 11 11 12 12 12 12 11 11 11 12 12 12 12 12 12 12 12 12 12 12 12 12 12 12 12 12 12 12 13 13 13 12 12 13 13
1 2 2 2 3 4 4 4 5 5 5 6 6 6 6 6 7 7 7 7 8 8 9 9 9 9 9 10 10 9 9 10 11 11 11 11 11 11 11 11 11 11 11 12 12 12 12 12 12 12 11 11 11 11 11 11 11 12 12 12 12 13 13 13 13 13 13 13 14
2 2 2 3 3 4 4 5 5 5 6 6 6 6 7 7 7 8 8 8 8 9 9 10 10 10 10 10 11 11 10 9 10 11 11 11 11 11 11 11 11 11 11 12 12 12 12 12 12 12 11 11 11 11 12 12 12 12 12 12 12 13 14 14 14 14 14 14 14
2 2 3 3 4 4 5 5 5 6 6 6 7 7 7 7 8 8 8 8 8 9 9 10 10 10 11 11 11 11 11 9 10 11 11 11 11 11 11 11 11 11 11 11 11 12 12 11 11 11 11 11 11 12 12 12 12 13 13 12 13 13 14 14 14 14 14 13 12
2 3 3 3 4 4 5 5 6 6 6 7 7 7 7 8 8 8 8 8 9 9 9 10 10 10 11 11 11 11 11 9 10 10 10 10 10 11 10 10 11 11 11 11 11 11 11 11 11 10 10 10 11 12 12 13 13 13 13 13 14 13 13 13 12 12 12 11 11
3 3 3 4 4 5 5 6 6 6 7 7 7 7 8 8 8 8 8 9 9 9 9 9 9 10 10 11 11 11 11 11 10 10 11 10 10 11 11 10 11 11 11 10 10 10 10 9 10 10 10 10 11 12 13 14 13 13 13 14 14 14 13 12 11 11 11 11 11
3 3 3 4 5 5 6 6 6 7 7 7 7 8 8 8 8 9 9 9 9 10 10 9 9 9 10 11 11 11 11 11 11 11 11 11 11 11 11 10 10 10 10 9 9 9 9 8 9 9 10 10 11 12 12 13 13 13 13 14 14 14 13 13 12 12 12 12 12
3 4 4 4 5 6 6 6 7 7 7 7 7 8 8 8 9 9 9 10 10 10 10 10 10 10 10 10 10 11 11 11 11 11 11 11 11 11 10 9 9 9 8 8 11 13 13 12 10 10 10 10 11 11 12 12 13 12 12 12 13 14 14 14 14 13 13 13 12
4 4 5 5 6 6 6 7 7 7 7 7 8 8 8 8 9 9 9 10 10 10 10 10 10 10 9 9 10 10 10 10 10 11 11 11 11 11 10 9 8 8 8 10 13 14 15 16 15 13 12 10 10 10 11 11 12 12 12 12 12 13 13 13 13 13 13 12 12
4 4 5 5 6 6 7 7 7 7 7 7 8 8 8 8 8 9 10 10 10 10 10 10 10 9 9 9 10 10 10 10 10 10 11 11 11 11 11 10 9 8 8 12 14 16 17 17 17 16 15 12 10 9 9 9 11 11 11 11 11 11 12 12 13 13 13 12 12
4 5 5 6 6 7 7 7 7 7 8 8 8 8 8 9 9 10 10 10 10 10 9 9 8 8 7 7 9 10 11 11 10 10 10 11 11 11 11 10 9 9 11 14 16 17 17 17 17 17 16 14 10 8 8 9 10 10 10 10 10 11 12 12 12 12 12 12 12
4 5 5 6 7 7 7 7 7 8 8 8 8 9 9 9 10 10 10 10 10 10 9 8 7 7 7 8 9 10 11 11 10 10 10 10 11 11 11 11 11 11 13 16 17 17 17 17 17 18 18 17 11 8 6 7 7 8 8 9 9 11 12 12 12 11 11 11 10
4 5 5 6 7 7 7 7 8 8 8 8 8 9 9 9 10 10 10 11 11 10 9 8 8 9 9 10 10 11 11 10 10 10 10 11 12 12 12 12 11 12 13 16 17 17 17 17 18 18 18 19 14 10 7 7 8 9 9 9 11 12 13 13 13 12 11 9 9
4 5 6 6 7 7 7 8 8 8 8 8 9 9 9 10 10 10 10 10 10 10 10 10 11 11 12 11 11 11 11 11 10 10 11 11 12 12 12 13 13 13 13 16 17 17 17 18 18 19 19 19 15 11 9 9 9 10 10 10 12 13 13 12 11 11 11 10 10
5 5 6 6 7 7 8 8 8 8 9 9 9 9 10 10 10 10 10 10 10 11 11 11 12 12 12 12 12 12 12 11 11 11 11 11 12 13 13 13 13 13 14 16 17 17 17 18 18 19 19 20 16 13 10 10 10 10 11 12 13 12 11 9 9 10 12 12 12
5 5 6 6 7 7 8 8 8 9 9 9 9 9 10 10 10 10 10 10 10 10 11 11 12 12 12 12 12 12 12 12 12 12 12 12 13 13 13 12 11 12 14 16 17 17 18 18 19 19 19 20 16 13 11 11 10 10 11 11 11 10 10 10 10 11 12 13 13
5 5 6 7 7 8 8 8 8 9 9 9 9 9 10 10 10 10 10 10 10 10 10 11 11 11 12 12 12 12 12 11 11 12 12 13 13 13 13 12 9 11 14 17 17 18 18 18 19 19 19 19 14 12 11 12 11 11 11 11 11 11 11 11 11 11 12 13 14
5 6 6 7 7 8 8 8 9 9 9 9 10 10 10 10 10 10 10 10 10 10 10 11 11 11 11 11 11 12 12 12 12 12 12 13 13 13 14 13 11 13 15 17 17 18 18 18 19 19 19 17 12 10 10 11 11 12 12 13 13 13 12 12 11 11 11 13 13
5 6 6 7 7 8 8 9 9 9 9 10 10 10 10 10 10 10 10 11 11 11 11 11 11 11 12 12 11 11 12 12 12 13 13 13 13 14 14 14 13 14 16 17 17 18 18 18 19 19 18 14 10 9 9 9 10 11 12 14 14 13 13 12 11 11 10 10 11
5 6 7 7 8 8 9 9 9 9 10 10 10 10 10 10 10 10 10 10 10 11 11 11 12 12 12 12 12 11 12 12 13 13 13 13 13 13 14 14 13 14 15 16 17 17 18 18 19 18 17 12 10 9 9 8 8 9 11 13 13 13 12 11 10 9 9 7 9
6 6 7 7 8 8 9 9 9 9 10 10 10 10 10 10 10 10 10 10 10 11 11 12 12 12 12 12 12 12 12 12 13 13 13 13 13 13 14 14 13 13 13 15 16 17 18 18 18 18 16 12 10 9 8 7 7 8 9 10 11 12 11 10 8 7 7 8 10
6 6 7 7 8 8 9 9 9 10 10 10 10 10 10 10 9 9 9 9 10 11 11 12 12 12 12 12 12 12 12 13 13 13 13 13 13 13 14 14 13 12 13 14 16 17 17 17 18 18 16 13 10 9 8 7 8 8 9 9 10 11 11 9 8 7 7 9 13
6 6 7 8 8 8 9 9 10 10 9 10 10 10 10 10 10 10 10 9 10 11 11 12 12 13 12 12 12 12 12 13 12 12 13 13 13 14 14 13 13 13 13 14 16 16 17 17 18 18 16 12 10 8 7 7 8 9 10 10 10 9 9 9 8 7 8 9 12
6 7 7 8 8 8 9 10 10 10 10 10 10 10 10 10 10 10 10 9 10 11 11 11 12 13 13 12 12 12 12 13 13 12 13 13 13 13 13 12 13 13 13 14 15 16 16 17 17 17 16 12 9 8 7 7 8 9 10 11 10 9 8 8 8 8 8 9 9
Wind_Direction
98 97 94 90 88 84 82 80 72 58 39 26 21 13 2 347 345 346 347 339 335 329 326 323 324 323 322 322 322 322 320 319 318 316 314 312 311 311 311 310 310 310 309 308 308 307 305 304 303 301 298 296 293 291 288 286 285 284 283 282 281 281 281 281 280 280 280 279 278
89 89 90 94 99 102 102 104 101 90 72 49 26 9 353 345 340 338 336 333 328 322 318 316 319 318 318 318 319 318 317 316 315 313 312 311 310 310 310 309 309 309 308 308 307 306 305 304 303 300 296 293 290 288 287 285 285 285 284 283 282 281 281 280 279 280 280 280 279
82 85 89 92 96 102 108 113 111 102 90 72 37 354 336 337 332 330 328 324 317 313 310 312 315 316 315 315 315 315 315 313 312 311 310 309 309 309 309 308 308 308 307 306 306 305 304 303 301 298 294 291 289 287 287 286 286 286 286 286 285 284 283 282 282 282 282 281 280
76 78 79 80 80 81 82 81 89 93 94 91 155 253 283 318 322 319 316 311 307 306 309 315 315 314 314 313 313 313 312 311 310 309 308 307 307 307 307 306 306 306 305 305 304 303 302 301 298 295 291 289 288 287 287 289 289 288 287 287 286 285 284 283 283 283 283 282 283
81 77 74 74 73 73 70 63 59 63 69 52 251 256 275 311 314 313 309 306 308 312 316 316 314 312 311 310 311 311 310 309 309 307 306 305 304 304 304 304 304 304 304 303 302 300 299 298 295 291 289 288 288 287 287 288 288 287 287 286 286 285 285 284 285 285 286 286 286
91 87 83 78 75 73 71 64 42 20 345 299 307 322 335 340 332 325 320 316 315 316 316 315 312 310 309 310 309 309 308 307 306 304 302 302 302 302 302 302 303 302 301 300 298 297 296 296 293 289 287 287 285 285 285 287 287 286 286 285 285 286 287 287 287 288 288 288 287
98 97 95 91 83 73 60 42 6 333 316 309 327 336 340 339 332 326 321 317 316 317 318 316 313 310 308 308 307 306 305 305 303 302 302 301 302 302 302 302 301 300 299 298 297 296 295 294 291 288 286 285 284 284 284 285 285 285 285 285 285 285 286 286 286 286 286 285 284
102 100 97 93 85 73 52 11 339 325 320 324 332 334 334 332 326 321 317 315 318 321 320 313 308 306 305 305 304 304 303 302 302 302 302 302 302 302 301 300 299 299 298 298 297 296 295 293 289 287 285 284 283 284 285 285 285 284 283 283 282 281 281 281 280 280 279 279 279
116 111 107 101 87 65 23 334 322 319 320 324 329 329 327 325 321 317 316 318 322 320 313 305 304 304 304 304 302 302 302 302 302 302 302 301 301 300 300 300 299 299 299 299 297 296 295 292 288 285 284 284 283 284 284 285 284 283 282 281 280 279 278 277 277 277 277 277 277
126 125 122 113 88 29 330 312 307 310 315 319 325 325 323 320 317 317 319 321 317 310 305 302 304 304 304 303 302 302 302 302 302 302 301 301 300 300 300 300 300 299 298 298 297 296 295 292 289 286 284 283 282 283 283 283 283 283 282 281 281 280 280 279 278 278 278 278 278
124 120 110 88 50 348 321 310 307 308 313 318 323 322 321 319 319 319 318 316 308 305 304 305 306 305 303 302 302 301 302 302 301 301 301 301 300 301 300 300 299 298 298 298 297 297 295 291 288 286 284 283 282 283 283 283 283 282 282 281 281 281 281 280 280 279 279 279 278
124 116 99 59 358 326 314 309 311 312 315 318 321 322 322 320 319 318 314 309 305 305 307 308 306 304 302 301 301 301 301 301 301 301 301 301 301 300 300 299 298 298 298 298 298 296 293 290 288 286 285 284 284 283 284 284 284 284 284 283 283 283 282 282 281 281 280 280 279
130 127 121 343 317 309 309 312 313 313 314 317 321 323 322 319 316 314 311 308 308 308 308 307 305 303 301 301 301 301 302 301 301 301 300 300 300 300 300 299 299 299 299 299 298 296 293 291 289 289 289 288 287 286 286 287 286 286 286 286 285 284 283 283 283 283 282 281 280
141 141 136 312 311 312 315 319 315 312 314 318 323 323 320 315 314 313 312 310 309 308 306 305 303 302 302 302 302 302 302 301 301 300 300 299 300 300 300 300 300 300 300 300 298 297 294 293 292 292 291 291 290 289 289 288 288 287 287 287 286 285 285 285 285 285 284 282 281
154 149 309 310 316 321 324 325 319 316 318 322 325 323 319 315 315 314 313 310 308 306 304 303 303 302 303 303 303 303 302 301 301 301 300 300 300 301 301 301 302 302 301 300 299 297 296 295 294 293 293 292 291 291 290 290 289 289 288 287 287 287 286 286 286 285 284 282 281
163 180 307 311 324 330 330 328 323 322 322 324 323 320 317 315 315 313 311 308 306 304 302 303 303 304 304 304 303 303 302 302 301 301 301 301 302 303 303 303 303 303 302 301 300 298 297 296 295 294 293 293 292 292 291 291 290 289 288 287 286 286 285 284 284 283 282 281 280
211 284 311 320 330 333 332 329 324 322 321 319 318 316 315 314 313 310 308 306 305 303 303 304 306 306 305 304 303 303 303 303 302 302 302 303 303 304 304 304 304 303 302 301 300 298 297 296 295 295 294 293 293 292 291 290 289 288 286 285 284 283 282 281 281 280 279 279 278
273 302 316 326 330 331 328 325 321 318 316 314 314 314 313 312 310 308 306 305 304 304 305 306 306 305 304 304 304 304 304 304 303 303 303 303 304 304 304 303 303 302 302 301 299 299 298 297 297 296 295 294 293 292 291 290 288 286 285 284 283 282 280 279 278 277 276 275 273
288 306 318 327 328 326 322 319 317 315 314 313 314 313 312 310 308 307 305 305 305 306 307 306 305 304 303 304 305 305 305 304 304 303 303 303 303 303 302 302 302 302 301 300 299 299 298 298 298 297 297 296 295 293 292 290 288 287 285 284 283 281 280 278 276 274 272 271 270
291 307 318 325 322 318 316 315 315 314 314 313 313 312 311 310 308 307 306 307 308 307 306 304 304 303 304 305 305 306 305 304 304 303 302 302 301 301 301 301 302 301 301 300 299 299 299 299 299 299 299 298 297 295 294 292 290 288 286 284 282 280 279 277 276 275 275 275 277
295 309 316 317 313 311 311 312 312 313 312 312 313 312 312 311 309 308 308 308 307 305 303 303 303 304 305 306 306 306 305 303 302 301 301 300 300 301 301 302 302 302 301 300 299 299 299 300 300 301 301 300 299 297 295 293 290 287 285 282 281 281 282 283 284 286 288 290 291
298 305 309 306 305 306 307 308 309 310 311 312 313 313 313 312 311 310 309 308 305 303 302 302 303 304 305 306 305 304 303 301 300 299 299 300 300 301 302 303 302 301 300 299 299 299 300 300 301 301 302 301 299 296 294 291 289 287 286 285 286 287 289 292 295 297 298 297 293
294 300 301 299 300 301 303 305 307 308 310 312 314 315 314 312 311 310 309 307 304 304 303 303 304 305 305 305 304 303 302 300 300 299 299 300 301 302 302 302 301 300 299 298 298 299 299 300 300 301 300 298 295 293 291 290 289 289 290 290 291 292 293 294 294 293 290 287 282
289 294 296 295 298 300 303 305 307 309 312 314 315 315 313 312 311 310 309 307 306 306 306 306 307 306 305 304 303 302 301 301 300 301 301 302 302 302 302 301 299 298 297 296 295 296 297 297 298 297 296 293 291 290 288 288 288 289 291 293 292 290 288 285 282 279 277 277 277
286 289 291 293 298 301 303 306 308 311 313 315 314 313 312 312 312 310 308 307 307 307 308 308 308 307 305 304 303 301 301 301 301 302 302 302 301 301 300 299 297 296 295 292 293 294 295 296 296 295 294 291 290 289 288 288 288 288 289 291 290 289 286 283 279 276 274 275 278
285 287 290 295 299 302 304 306 309 311 313 314 313 313 312 312 310 309 308 307 308 309 310 310 309 308 306 304 302 301 300 300 301 301 301 301 300 299 299 296 295 294 292 292 294 295 297 298 298 297 295 293 291 290 289 288 288 288 288 288 290 291 291 290 286 284 282 281 282
283 286 291 296 299 302 304 308 310 312 313 314 313 312 312 311 309 307 307 307 309 311 311 311 310 309 306 303 301 300 299 299 300 299 299 298 298 298 297 295 293 291 291 292 295 297 299 300 300 299 298 294 291 288 287 288 290 290 289 289 290 291 292 291 291 290 289 288 288
283 287 292 296 299 303 306 309 312 313 315 315 314 312 311 309 308 307 308 309 311 312 312 311 310 308 305 301 299 299 299 299 299 298 297 296 296 295 295 294 293 292 293 295 297 299 301 301 301 300 299 297 293 290 289 291 294 296 295 293 290 289 288 288 288 289 291 293 296
285 290 294 297 301 305 308 312 314 315 316 315 313 311 310 308 308 309 310 311 313 313 313 311 309 306 302 299 299 299 299 298 298 297 297 296 295 295 294 294 294 295 296 298 300 301 302 302 301 300 299 299 297 295 294 294 296 296 295 292 289 288 287 286 287 289 294 300 305
291 294 297 301 304 307 311 314 316 316 315 313 312 311 310 309 309 310 312 313 313 312 311 309 306 303 301 299 299 299 299 299 299 299 299 299 297 296 296 296 297 297 299 300 301 301 301 301 300 299 298 299 299 297 295 295 295 293 292 290 289 288 288 287 289 293 298 305 307
296 299 301 304 307 310 313 316 316 315 314 313 311 311 310 310 311 312 312 312 311 309 307 305 303 301 300 300 300 300 300 301 302 302 301 300 298 297 297 297 298 298 299 300 301 301 301 300 300 299 299 300 302 302 301 301 299 296 293 291 290 291 292 294 297 300 302 302 298
297 299 302 305 309 312 315 316 315 315 314 312 311 310 310 310 311 311 310 309 308 307 306 304 304 303 302 302 301 302 303 303 304 303 302 300 298 298 297 297 298 299 299 301 301 301 301 301 302 302 303 305 306 306 306 303 300 295 291 288 289 291 294 298 300 302 301 298 291
297 300 305 308 312 314 315 315 315 314 313 312 310 310 310 310 310 309 308 307 306 305 305 305 304 304 303 303 303 303 304 303 303 302 301 300 299 298 298 298 298 299 300 300 301 302 303 304 306 307 309 311 311 310 308 304 298 293 290 289 288 289 291 294 296 298 297 293 287
302 306 309 311 313 314 314 315 314 313 312 310 310 310 310 309 308 307 306 306 305 305 304 304 303 303 303 303 303 303 303 303 303 302 301 301 300 299 299 299 297 298 299 301 303 306 308 309 311 312 313 315 314 311 308 303 297 292 290 288 286 286 287 290 292 291 289 286 283
308 311 312 313 314 314 314 315 314 312 311 309 309 309 309 307 306 306 306 306 306 304 303 302 302 302 301 302 302 303 303 303 303 302 302 301 301 299 298 298 297 299 302 304 308 310 312 312 313 314 315 316 315 311 306 301 296 293 291 290 287 285 285 287 287 285 283 282 283
312 313 313 314 314 314 314 314 313 311 310 309 309 308 307 306 306 306 306 307 305 304 303 302 302 302 302 303 303 304 304 304 304 303 302 302 300 299 298 298 299 302 305 308 310 311 312 312 313 314 316 317 314 309 304 299 296 295 295 293 289 287 286 286 285 284 284 286 291
313 314 314 313 313 313 313 312 310 309 308 307 307 306 306 306 306 306 306 307 305 304 303 303 303 303 304 304 304 304 304 304 304 303 302 301 300 299 299 299 300 303 306 308 309 309 310 311 312 314 316 316 313 308 303 299 298 299 299 297 293 291 289 288 288 290 293 299 301
313 313 312 312 311 311 310 309 308 307 306 306 305 305 305 306 306 306 306 306 305 303 302 302 302 303 303 304 304 304 304 303 303 302 302 301 300 299 299 299 301 303 305 306 305 306 307 309 311 314 316 315 313 309 305 301 300 299 298 296 294 293 293 292 295 299 303 304 300
311 310 310 309 308 308 307 306 305 305 305 305 304 304 305 305 305 305 305 304 302 301 301 301 302 302 303 304 304 304 304 304 303 303 302 301 300 300 300 301 302 303 303 302 303 304 306 308 311 314 316 315 313 310 305 301 298 295 292 290 290 291 293 296 301 303 302 297 293
306 306 306 305 306 305 305 304 303 304 304 303 303 303 303 304 303 303 303 301 301 301 301 301 301 302 303 304 304 304 304 305 305 304 303 302 302 303 304 305 304 303 302 301 302 304 306 309 312 314 316 315 313 309 303 299 295 293 291 290 291 294 297 302 303 302 297 291 288
301 302 303 303 303 303 302 302 302 302 302 302 302 301 302 302 301 301 301 301 302 302 302 301 301 302 304 305 304 304 305 305 305 305 305 305 306 308 309 309 306 304 302 301 302 305 307 311 313 315 316 314 312 308 302 299 297 296 297 299 301 302 303 303 302 298 295 293 292